Kirksville, MO

7:23 PM CDT on May 22, 2017 (GMT -0500)
Kirksville Regional

Weather History for KIRK - March, 2014

Change the Weather History Date:

Monday, March 3, 2014

  Actual Average Record
Temperature  
Mean Temperature 5 °F 35 °F  
Max Temperature 16 °F 45 °F 79 °F (1983)
Min Temperature -7 °F 26 °F -7 °F (2014)
Degree Days  
Heating Degree Days 60 30  
Month to date heating degree days 171 91  
Since 1 July heating degree days 5141 4624  
Cooling Degree Days 0 0  
Month to date cooling degree days 0 0  
Year to date cooling degree days 0 0  
Moisture  
Dew Point -7 °F    
Average Humidity 58    
Maximum Humidity 71    
Minimum Humidity 45    
Precipitation  
Precipitation 0.00 in 0.08 in 1.11 in (1985)
Month to date precipitation 0.30 0.24  
Year to date precipitation 3.85 3.04  
Sea Level Pressure  
Sea Level Pressure 30.52 in    
Wind  
Wind Speed 6 mph (East)    
Max Wind Speed 14 mph    
Max Gust Speed 18 mph    
Visibility 10 miles    
Events      
T = Trace of Precipitation, MM = Missing Value Source: NWS Daily Summary

Daily Weather History Graph

Daily Weather History Graph

Search for Another Location

Airport or City:

Trip Planner

Search our weather history database for the weather conditions in past years. The results will help you decide how hot, cold, wet, or windy it might be!

Date:

Astronomy

Mar. 03, 2014 Rise Set
Actual Time 6:40 AM CST 6:04 PM CST
Civil Twilight 6:13 AM CST 6:31 PM CST
Nautical Twilight 5:42 AM CST 7:02 PM CST
Astronomical Twilight 5:10 AM CST 7:34 PM CST
Moon 7:49 AM CST (3/3) 9:07 PM CST (3/3)
Length of Visible Light 12h 18m
Length of Day
11h 23m
Waxing Crescent, 8% of the Moon is Illuminated
Mar 3
Waxing Crescent
Mar 8
First Quarter
Mar 16
Full
Mar 23
Last Quarter
Mar 30
New

Hourly Weather History & Observations

Time (CST) Temp. Windchill Dew Point Humidity Pressure Visibility Wind Dir Wind Speed Gust Speed Precip Events Conditions
12:55 AM -4.0 °F -23.0 °F -14.1 °F 62% 30.59 in 10.0 mi North 12.7 mph - N/A   Clear
1:55 AM -5.1 °F -23.5 °F -14.1 °F 65% 30.58 in 10.0 mi North 11.5 mph - N/A   Clear
2:55 AM -5.1 °F -22.5 °F -14.1 °F 65% 30.56 in 10.0 mi North 10.4 mph - N/A   Clear
3:55 AM -5.1 °F -21.5 °F -14.1 °F 65% 30.58 in 10.0 mi North 9.2 mph - N/A   Clear
4:55 AM -5.1 °F -22.5 °F -14.1 °F 65% 30.58 in 10.0 mi North 10.4 mph - N/A   Clear
5:55 AM -6.0 °F -22.6 °F -14.1 °F 68% 30.60 in 10.0 mi North 9.2 mph - N/A   Clear
6:55 AM -7.1 °F -19.9 °F -15.0 °F 68% 30.60 in 10.0 mi North 5.8 mph - N/A   Clear
7:55 AM -2.9 °F -17.7 °F -13.0 °F 62% 30.60 in 10.0 mi NNE 8.1 mph - N/A   Clear
8:55 AM -0.0 °F -14.2 °F -11.9 °F 57% 30.60 in 10.0 mi East 8.1 mph - N/A   Clear
9:55 AM 3.9 °F - -9.9 °F 53% 30.60 in 10.0 mi Calm Calm - N/A   Clear
10:55 AM 8.1 °F - -9.0 °F 46% 30.60 in 10.0 mi Calm Calm - N/A   Clear
11:55 AM 7.0 °F -1.7 °F -8.0 °F 51% 30.59 in 10.0 mi South 4.6 mph - N/A   Clear
12:55 PM 10.9 °F 2.9 °F -6.0 °F 47% 30.56 in 10.0 mi SE 4.6 mph - N/A   Clear
1:55 PM 12.9 °F - -5.1 °F 45% 30.54 in 10.0 mi Calm Calm - N/A   Clear
2:55 PM 15.1 °F 6.4 °F -2.9 °F 45% 30.51 in 10.0 mi ESE 5.8 mph - N/A   Clear
3:55 PM 16.0 °F 7.4 °F -2.0 °F 45% 30.49 in 10.0 mi ESE 5.8 mph - N/A   Clear
4:55 PM 16.0 °F 7.4 °F -2.0 °F 45% 30.47 in 10.0 mi SE 5.8 mph - N/A   Clear
5:55 PM 14.0 °F 2.9 °F -2.0 °F 49% 30.44 in 10.0 mi SE 8.1 mph - N/A   Clear
6:55 PM 10.0 °F 3.6 °F -0.9 °F 61% 30.44 in 10.0 mi SE 3.5 mph - N/A   Clear
7:55 PM 10.0 °F 1.8 °F -2.0 °F 58% 30.42 in 10.0 mi SE 4.6 mph - N/A   Clear
8:55 PM 10.9 °F -0.8 °F -0.9 °F 59% 30.38 in 10.0 mi SE 8.1 mph - N/A   Clear
9:55 PM 12.0 °F 1.5 °F -0.9 °F 56% 30.38 in 10.0 mi SE 6.9 mph - N/A   Scattered Clouds
10:55 PM 12.9 °F 6.9 °F -0.9 °F 54% 30.38 in 10.0 mi South 3.5 mph - N/A   Overcast
11:55 PM 12.9 °F 6.9 °F 1.9 °F 62% 30.35 in 10.0 mi South 3.5 mph - N/A   Overcast